ON7AMI-5 Weather Reports


time (UTC)temp
C
wind
direction
speed
KPH
gust
KPH
rain 1hr
cm
rain 24hr
cm
rain mn
cm
humidity
%
barometer
mb
20260507124036 15 212 3.2 6.4 0.00 0.00 0.00 85 1017.6
20260507123536 15 126 0.0 3.2 0.00 0.00 0.00 85 1017.5
20260507123036 15 126 0.0 0.0 0.00 0.00 0.00 85 1017.5
20260507122535 15 197 0.0 3.2 0.00 0.00 0.00 85 1017.5
20260507122035 15 188 3.2 9.7 0.00 0.00 0.00 85 1017.5
20260507121535 15 231 3.2 9.7 0.00 0.00 0.00 85 1017.5
20260507121035 15 198 0.0 3.2 0.00 0.00 0.00 86 1017.4
20260507120535 15 198 0.0 3.2 0.00 0.00 0.00 86 1017.5
20260507120035 15 194 4.8 6.4 0.00 0.00 0.00 86 1017.5
20260507115530 15 125 1.6 6.4 0.00 0.00 0.00 86 1017.5
20260507115035 15 88 0.0 3.2 0.00 0.00 0.00 86 1017.4
20260507114535 15 88 1.6 3.2 0.00 0.00 0.00 86 1017.4
20260507114036 15 88 0.0 0.0 0.00 0.00 0.00 86 1017.4
20260507113536 15 88 0.0 0.0 0.00 0.00 0.00 86 1017.4
20260507113035 15 88 0.0 0.0 0.00 0.00 0.00 87 1017.4
20260507112535 15 121 1.6 9.7 0.00 0.00 0.00 87 1017.4
20260507112035 15 286 0.0 3.2 0.00 0.00 0.00 87 1017.4
20260507111535 15 286 0.0 3.2 0.00 0.00 0.00 87 1017.4
20260507111035 15 286 0.0 3.2 0.00 0.00 0.00 87 1017.5
20260507110536 15 286 4.8 6.4 0.00 0.00 0.00 87 1017.5
20260507110035 15 268 8.0 12.9 0.00 0.00 0.00 88 1017.5
20260507105535 16 257 6.4 9.7 0.00 0.00 0.00 88 1017.5
20260507105035 16 217 4.8 9.7 0.00 0.00 0.00 88 1017.6
20260507104535 16 210 0.0 3.2 0.00 0.00 0.00 88 1017.6
20260507104035 16 300 0.0 0.0 0.00 0.00 0.00 88 1017.6
20260507103536 16 336 0.0 0.0 0.00 0.00 0.00 88 1017.6
20260507103039 16 310 0.0 0.0 0.00 0.00 0.00 89 1017.6
20260507102532 16 293 4.8 9.7 0.00 0.00 0.00 89 1017.7
20260507102035 16 83 1.6 6.4 0.00 0.00 0.00 89 1017.7
20260507101536 16 105 0.0 3.2 0.00 0.00 0.00 89 1017.7
20260507101028 16 104 0.0 3.2 0.00 0.00 0.00 89 1017.6
20260507100535 16 83 0.0 3.2 0.00 0.00 0.00 90 1017.6
20260507100035 17 120 3.2 9.7 0.00 0.00 0.00 90 1017.6
20260507095529 17 116 6.4 12.9 0.00 0.00 0.00 90 1017.5
20260507095035 16 135 11.3 16.1 0.00 0.00 0.00 90 1017.5
20260507094534 16 105 11.3 19.3 0.00 0.00 0.00 90 1017.5
20260507094034 17 160 9.7 16.1 0.00 0.00 0.00 90 1017.4
20260507093534 17 116 4.8 16.1 0.00 0.00 0.00 91 1017.4
20260507093045 16 345 0.0 3.2 0.00 0.00 0.00 91 1017.4
20260507092531 16 67 6.4 12.9 0.00 0.00 0.00 91 1017.4
20260507092035 16 135 6.4 12.9 0.00 0.00 0.00 91 1017.2
20260507091535 15 1 4.8 9.7 0.00 0.00 0.00 92 1017.4
20260507091028 15 20 3.2 16.1 0.00 0.00 0.00 92 1017.4
20260507090534 15 48 4.8 12.9 0.00 0.00 0.00 92 1017.3
20260507090027 15 92 3.2 6.4 0.00 0.00 0.00 92 1017.3
20260507085534 14 156 3.2 6.4 0.00 0.00 0.00 92 1017.3
20260507085035 14 20 4.8 9.7 0.00 0.00 0.00 92 1017.2
20260507084535 14 26 8.0 16.1 0.00 0.00 0.00 93 1017.2
20260507084035 15 32 3.2 6.4 0.00 0.00 0.00 93 1017.2
20260507083535 15 81 1.6 6.4 0.00 0.00 0.00 93 1017.2
20260507083034 14 118 4.8 9.7 0.00 0.00 0.00 93 1017.1
20260507082536 14 83 0.0 3.2 0.00 0.00 0.00 93 1017.1
20260507082034 14 116 3.2 6.4 0.00 0.00 0.00 93 1017.1
20260507081534 13 167 1.6 6.4 0.00 0.03 0.00 94 1017.1
20260507081035 13 45 0.0 0.0 0.00 0.03 0.00 94 1017.2
20260507080535 13 342 0.0 3.2 0.00 0.03 0.00 94 1017.2
20260507080034 13 120 0.0 0.0 0.00 0.03 0.00 94 1017.2
20260507075535 13 27 0.0 9.7 0.00 0.03 0.00 94 1017.2
20260507075035 12 173 0.0 6.4 0.00 0.03 0.00 94 1017.2
20260507074534 12 188 0.0 3.2 0.00 0.03 0.00 94 1017.2
20260507074035 12 89 1.6 6.4 0.00 0.03 0.00 94 1017.2
20260507073534 12 114 3.2 9.7 0.00 0.03 0.00 95 1017.2
20260507073035 12 21 0.0 3.2 0.00 0.03 0.00 95 1017.1
20260507072535 12 152 0.0 3.2 0.00 0.03 0.00 95 1017.1
20260507072035 12 85 0.0 3.2 0.00 0.03 0.00 95 1017.0
20260507071535 11 71 0.0 3.2 0.00 0.03 0.00 95 1016.9
20260507071035 11 45 0.0 9.7 0.00 0.03 0.00 95 1016.9
20260507070535 11 92 1.6 6.4 0.00 0.03 0.00 95 1016.8
20260507070034 11 136 3.2 9.7 0.00 0.03 0.00 95 1016.8
20260507065536 11 135 1.6 6.4 0.00 0.03 0.00 95 1016.8
20260507065035 11 134 3.2 9.7 0.00 0.03 0.00 95 1016.9
20260507064534 11 174 0.0 6.4 0.00 0.03 0.00 95 1016.9
20260507064035 11 45 0.0 6.4 0.00 0.03 0.00 95 1016.9
20260507063535 10 45 0.0 0.0 0.00 0.03 0.00 95 1016.8
20260507063035 10 45 0.0 0.0 0.00 0.03 0.00 96 1016.7
20260507062535 10 45 0.0 0.0 0.00 0.03 0.00 96 1016.6
20260507062035 10 45 0.0 0.0 0.00 0.03 0.00 96 1016.6
20260507061535 9 45 0.0 0.0 0.00 0.03 0.00 95 1016.5
20260507061035 9 45 0.0 0.0 0.00 0.03 0.00 95 1016.5
20260507060535 9 45 0.0 0.0 0.00 0.03 0.00 95 1016.5
20260507060028 9 45 0.0 0.0 0.00 0.03 0.00 95 1016.5
20260507055534 8 45 0.0 0.0 0.00 0.03 0.00 95 1016.4
20260507055034 8 45 0.0 0.0 0.00 0.03 0.00 95 1016.4
20260507054528 8 45 0.0 0.0 0.00 0.03 0.00 95 1016.3
20260507054035 8 45 0.0 0.0 0.00 0.03 0.00 95 1016.3
20260507053535 8 45 0.0 0.0 0.00 0.03 0.00 95 1016.2
20260507053029 8 45 0.0 0.0 0.00 0.03 0.00 95 1016.1
20260507052535 8 45 0.0 0.0 0.00 0.03 0.00 95 1016.0
20260507052035 8 45 0.0 0.0 0.00 0.03 0.00 95 1016.0
20260507051535 8 45 0.0 0.0 0.00 0.03 0.00 95 1016.0
20260507051035 8 45 0.0 0.0 0.00 0.03 0.00 95 1015.9
20260507050534 8 45 0.0 0.0 0.00 0.03 0.00 95 1015.8
20260507050035 8 45 0.0 0.0 0.00 0.03 0.00 95 1015.8
20260507045535 8 45 0.0 0.0 0.00 0.03 0.00 95 1015.8
20260507045034 7 45 0.0 0.0 0.00 0.03 0.00 95 1015.8
20260507044535 7 45 0.0 0.0 0.00 0.03 0.00 95 1015.8
20260507044035 7 45 0.0 0.0 0.00 0.03 0.00 94 1015.7
20260507043534 7 45 0.0 0.0 0.00 0.03 0.00 94 1015.7
20260507043035 7 45 0.0 0.0 0.00 0.03 0.00 94 1015.8
20260507042534 7 45 0.0 0.0 0.00 0.03 0.00 94 1015.7
20260507042035 7 45 0.0 0.0 0.00 0.03 0.00 94 1015.7
20260507041534 7 45 0.0 0.0 0.00 0.03 0.00 94 1015.7
20260507041035 7 45 0.0 0.0 0.00 0.03 0.00 94 1015.7
20260507040533 7 45 0.0 0.0 0.00 0.03 0.00 94 1015.6
20260507040033 7 45 0.0 0.0 0.00 0.03 0.00 94 1015.5
20260507035533 7 45 0.0 0.0 0.00 0.03 0.00 94 1015.5
20260507035033 7 45 0.0 0.0 0.00 0.03 0.00 94 1015.5
20260507034533 7 45 0.0 0.0 0.00 0.03 0.00 93 1015.5
20260507034033 7 45 0.0 0.0 0.00 0.03 0.00 93 1015.5
20260507033533 7 45 0.0 0.0 0.00 0.03 0.00 93 1015.5
20260507033033 7 45 1.6 3.2 0.00 0.03 0.00 93 1015.5
20260507032533 7 272 0.0 0.0 0.00 0.03 0.00 93 1015.4
20260507032033 7 272 0.0 0.0 0.00 0.03 0.00 93 1015.4
20260507031533 7 271 0.0 0.0 0.00 0.03 0.00 93 1015.3
20260507031033 7 271 0.0 0.0 0.00 0.03 0.00 93 1015.3
20260507030533 7 271 0.0 0.0 0.00 0.03 0.00 93 1015.3
20260507030033 7 271 0.0 0.0 0.00 0.03 0.00 92 1015.3
20260507025533 7 271 0.0 0.0 0.00 0.03 0.00 92 1015.3
20260507025033 7 271 0.0 0.0 0.00 0.03 0.00 92 1015.2
20260507024533 7 271 0.0 0.0 0.00 0.03 0.00 92 1015.2
20260507024033 7 271 0.0 0.0 0.00 0.03 0.00 92 1015.2
20260507023533 7 271 0.0 0.0 0.00 0.03 0.00 92 1015.2
20260507023033 7 271 0.0 3.2 0.00 0.03 0.00 92 1015.1
20260507022533 7 271 0.0 0.0 0.00 0.03 0.00 91 1015.1
20260507022032 7 271 0.0 0.0 0.00 0.03 0.00 91 1015.1
20260507021534 7 271 0.0 0.0 0.00 0.03 0.00 91 1015.1
20260507021033 7 271 0.0 0.0 0.00 0.03 0.00 91 1015.0
20260507020527 7 271 0.0 0.0 0.00 0.03 0.00 91 1015.0
20260507020033 7 271 0.0 0.0 0.00 0.03 0.00 91 1014.9
20260507015534 7 271 0.0 0.0 0.00 0.03 0.00 91 1014.9
20260507015026 6 271 0.0 0.0 0.00 0.03 0.00 91 1014.9
20260507014534 6 271 0.0 3.2 0.00 0.03 0.00 91 1014.8
20260507014033 6 271 0.0 0.0 0.00 0.03 0.00 91 1014.8
20260507013533 6 271 0.0 0.0 0.00 0.03 0.00 90 1014.8
20260507013033 6 271 0.0 0.0 0.00 0.03 0.00 90 1014.7
20260507012533 6 271 0.0 0.0 0.00 0.03 0.00 90 1014.7
20260507012026 6 271 0.0 0.0 0.00 0.03 0.00 90 1014.7
20260507011533 6 271 0.0 0.0 0.00 0.03 0.00 90 1014.7
20260507011033 6 271 0.0 0.0 0.00 0.03 0.00 90 1014.7
20260507010529 6 271 0.0 0.0 0.00 0.03 0.00 90 1014.7
20260507010033 6 271 0.0 0.0 0.00 0.03 0.00 90 1014.8
20260507005533 6 271 0.0 0.0 0.00 0.03 0.00 90 1014.8
20260507005033 6 271 0.0 0.0 0.00 0.03 0.00 90 1014.7
20260507004533 6 271 0.0 0.0 0.00 0.03 0.00 89 1014.7
20260507004033 6 271 0.0 0.0 0.00 0.03 0.00 89 1014.7
20260507003533 6 271 0.0 0.0 0.00 0.03 0.00 89 1014.7
20260507003033 6 271 0.0 0.0 0.00 0.03 0.00 89 1014.6
20260507002533 6 271 0.0 0.0 0.00 0.03 0.00 89 1014.6
20260507002033 6 271 0.0 0.0 0.00 0.03 0.00 89 1014.7
20260507001538 6 271 0.0 0.0 0.00 0.03 0.00 89 1014.6
20260507001033 6 271 0.0 0.0 0.00 0.03 0.00 89 1014.6
20260507000532 6 271 0.0 0.0 0.00 0.03 0.00 89 1014.6
20260507000033 6 271 0.0 0.0 0.00 0.03 0.03 89 1014.6
20260506235535 6 271 0.0 0.0 0.00 0.03 0.03 88 1014.6
20260506235034 6 271 0.0 0.0 0.00 0.03 0.03 88 1014.5
20260506234535 6 271 0.0 0.0 0.00 0.03 0.03 88 1014.5
20260506234034 6 271 0.0 0.0 0.00 0.03 0.03 88 1014.5
20260506233531 6 271 0.0 0.0 0.00 0.03 0.03 88 1014.4
20260506233034 6 271 0.0 0.0 0.00 0.03 0.03 88 1014.4
20260506232539 6 271 0.0 0.0 0.00 0.03 0.03 88 1014.4
20260506232039 6 271 0.0 0.0 0.00 0.03 0.03 88 1014.4
20260506231535 6 271 0.0 0.0 0.00 0.03 0.03 88 1014.4
20260506231038 6 271 0.0 0.0 0.00 0.03 0.03 88 1014.3
20260506230538 6 271 0.0 0.0 0.00 0.03 0.03 88 1014.3
20260506230039 6 271 0.0 0.0 0.00 0.03 0.03 87 1014.2
20260506225539 6 271 0.0 0.0 0.00 0.03 0.03 87 1014.2
20260506225035 6 271 0.0 0.0 0.00 0.03 0.03 87 1014.2
20260506224539 6 271 0.0 0.0 0.00 0.03 0.03 87 1014.2
20260506224031 6 271 0.0 0.0 0.00 0.03 0.03 87 1014.2
20260506223539 6 271 0.0 0.0 0.00 0.03 0.03 87 1014.2
20260506223038 6 271 0.0 0.0 0.00 0.03 0.03 87 1014.1
20260506222528 6 271 0.0 0.0 0.00 0.03 0.03 87 1014.1
20260506222039 6 271 0.0 0.0 0.00 0.03 0.03 87 1014.0
20260506221530 6 271 0.0 0.0 0.00 0.03 0.03 87 1014.0
20260506221032 6 271 0.0 0.0 0.00 0.03 0.03 87 1014.0
20260506220532 7 271 0.0 0.0 0.00 0.03 0.03 87 1014.0
20260506220034 7 271 0.0 0.0 0.00 0.03 0.03 87 1014.0
20260506215535 7 271 0.0 0.0 0.00 0.03 0.03 86 1014.0
20260506215034 7 271 0.0 0.0 0.00 0.03 0.03 86 1013.9
20260506214535 7 271 0.0 0.0 0.00 0.03 0.03 86 1013.9
20260506214035 7 271 0.0 0.0 0.00 0.03 0.03 86 1014.0
20260506213535 7 271 0.0 0.0 0.00 0.03 0.03 86 1014.0
20260506213042 7 271 0.0 0.0 0.00 0.03 0.03 86 1014.0
20260506212535 8 271 0.0 0.0 0.00 0.03 0.03 86 1014.0
20260506212036 8 271 0.0 0.0 0.00 0.03 0.03 86 1013.8
20260506211535 8 271 0.0 0.0 0.00 0.03 0.03 86 1013.7
20260506211036 8 271 0.0 0.0 0.00 0.03 0.03 86 1013.7
20260506210536 8 271 0.0 0.0 0.00 0.03 0.03 86 1013.7
20260506210035 8 271 0.0 0.0 0.00 0.03 0.03 86 1013.7
20260506205536 9 271 0.0 0.0 0.00 0.03 0.03 86 1013.7
20260506205035 9 271 0.0 0.0 0.00 0.03 0.03 86 1013.7
20260506204536 9 271 0.0 0.0 0.00 0.03 0.03 86 1013.6
20260506204028 10 271 0.0 0.0 0.00 0.03 0.03 86 1013.6
20260506203535 10 271 0.0 0.0 0.00 0.03 0.03 86 1013.6
20260506203036 10 271 0.0 0.0 0.00 0.03 0.03 86 1013.5
20260506202529 10 271 0.0 0.0 0.00 0.03 0.03 86 1013.4
20260506202035 10 271 0.0 0.0 0.00 0.03 0.03 86 1013.3
20260506201536 11 271 0.0 3.2 0.00 0.03 0.03 86 1013.3
20260506201029 11 271 0.0 3.2 0.00 0.03 0.03 86 1013.3
20260506200536 11 324 0.0 3.2 0.00 0.03 0.03 86 1013.2
20260506200035 11 343 0.0 0.0 0.00 0.03 0.03 86 1013.2
20260506195531 11 9 1.6 6.4 0.00 0.03 0.03 86 1013.2
20260506195036 11 292 0.0 3.2 0.00 0.03 0.03 86 1013.2
20260506194535 12 24 0.0 3.2 0.00 0.03 0.03 86 1013.1
20260506194030 12 94 1.6 6.4 0.00 0.03 0.03 87 1013.1
20260506193536 12 173 6.4 19.3 0.00 0.03 0.03 87 1013.0
20260506193035 12 16 4.8 12.9 0.00 0.03 0.03 87 1013.0
20260506192536 12 64 0.0 0.0 0.00 0.03 0.03 87 1013.0
20260506192035 12 357 1.6 6.4 0.00 0.03 0.03 87 1012.9
20260506191535 12 357 8.0 12.9 0.00 0.03 0.03 87 1012.9
20260506191035 12 32 3.2 9.7 0.00 0.03 0.03 87 1012.9
20260506190535 12 315 6.4 12.9 0.00 0.03 0.03 87 1012.8
20260506190035 12 336 8.0 12.9 0.00 0.03 0.03 87 1012.8
20260506185535 12 332 8.0 12.9 0.00 0.03 0.03 87 1012.5
20260506185035 12 331 11.3 19.3 0.00 0.03 0.03 87 1012.5
20260506184536 12 316 9.7 16.1 0.00 0.03 0.03 87 1012.5
20260506184035 12 312 8.0 16.1 0.00 0.03 0.03 87 1012.5
20260506183535 12 356 6.4 9.7 0.00 0.03 0.03 87 1012.4
20260506183035 12 326 9.7 16.1 0.00 0.03 0.03 87 1012.4
20260506182536 12 311 8.0 12.9 0.00 0.03 0.03 87 1012.3
20260506182035 13 356 4.8 16.1 0.00 0.03 0.03 87 1012.3
20260506181535 13 335 4.8 12.9 0.00 0.03 0.03 87 1012.3
20260506181036 13 329 12.9 19.3 0.00 0.03 0.03 87 1012.2
20260506180535 13 349 17.7 29.0 0.00 0.03 0.03 87 1012.1
20260506180036 13 326 12.9 25.7 0.00 0.03 0.03 87 1012.2
20260506175537 13 338 9.7 22.5 0.00 0.03 0.03 87 1012.1
20260506175037 13 351 9.7 19.3 0.00 0.03 0.03 87 1012.0
20260506174537 13 335 12.9 22.5 0.00 0.03 0.03 87 1011.8
20260506174035 13 340 14.5 22.5 0.00 0.03 0.03 87 1011.7
20260506173536 14 353 16.1 25.7 0.00 0.03 0.03 86 1011.7
20260506173035 14 331 9.7 16.1 0.00 0.03 0.03 86 1011.6
20260506172535 15 347 20.9 32.2 0.00 0.03 0.03 87 1011.5
20260506172035 15 355 14.5 25.7 0.00 0.03 0.03 87 1011.4
20260506171536 15 328 12.9 22.5 0.00 0.03 0.03 87 1011.3
20260506171030 15 11 14.5 22.5 0.00 0.03 0.03 87 1011.2
20260506170536 15 338 30.6 48.3 0.00 0.03 0.03 87 1011.2
20260506170035 15 342 14.5 22.5 0.00 0.03 0.03 87 1011.2
20260506165536 15 350 17.7 32.2 0.00 0.03 0.03 87 1011.2
20260506165035 15 2 25.7 41.8 0.00 0.03 0.03 87 1011.1
20260506164535 15 7 19.3 29.0 0.00 0.03 0.03 87 1011.1
20260506164036 15 350 19.3 32.2 0.00 0.03 0.03 87 1011.1
20260506163535 15 350 20.9 41.8 0.00 0.03 0.03 87 1011.2
20260506163035 15 14 25.7 48.3 0.00 0.03 0.03 87 1011.2
20260506162535 16 13 11.3 19.3 0.00 0.03 0.03 87 1011.1
20260506162035 16 345 19.3 32.2 0.00 0.03 0.03 87 1011.1
20260506161529 16 0 27.4 41.8 0.00 0.03 0.03 87 1011.2
20260506161035 16 359 30.6 45.1 0.00 0.03 0.03 87 1011.1
20260506160536 16 3 22.5 32.2 0.00 0.03 0.03 87 1011.1
20260506160030 16 10 20.9 45.1 0.00 0.03 0.03 88 1011.0
20260506155535 16 359 17.7 35.4 0.00 0.03 0.03 88 1011.0
20260506155035 16 11 32.2 45.1 0.00 0.03 0.03 88 1010.9
20260506154529 16 13 27.4 38.6 0.00 0.03 0.03 88 1010.9
20260506154036 15 12 20.9 41.8 0.00 0.03 0.03 88 1010.9
20260506153535 15 357 25.7 38.6 0.00 0.03 0.03 88 1010.9
20260506153028 15 11 20.9 32.2 0.00 0.03 0.03 88 1011.0
20260506152535 15 20 25.7 38.6 0.00 0.03 0.03 89 1011.1
20260506152035 16 2 17.7 32.2 0.00 0.03 0.03 89 1011.1
20260506151535 16 8 22.5 32.2 0.00 0.03 0.03 89 1010.9
20260506151036 16 5 24.1 35.4 0.00 0.03 0.03 89 1010.9
20260506150535 16 17 17.7 29.0 0.00 0.03 0.03 89 1010.9
20260506150035 17 4 14.5 25.7 0.00 0.03 0.03 89 1010.9
20260506145535 16 5 17.7 29.0 0.00 0.03 0.03 89 1010.9
20260506145036 16 359 17.7 29.0 0.00 0.03 0.03 89 1010.9
20260506144535 16 7 24.1 35.4 0.00 0.03 0.03 90 1010.8
20260506144035 16 26 22.5 32.2 0.00 0.03 0.03 90 1010.8
20260506143535 16 15 20.9 38.6 0.00 0.03 0.03 90 1010.8
20260506143035 16 24 14.5 29.0 0.00 0.03 0.03 90 1010.8
20260506142536 15 13 16.1 29.0 0.00 0.03 0.03 90 1010.8
20260506142035 15 18 27.4 35.4 0.00 0.03 0.03 91 1010.8
20260506141535 16 356 14.5 25.7 0.00 0.03 0.03 91 1010.8
20260506141035 15 2 17.7 25.7 0.00 0.03 0.03 91 1010.8
20260506140535 15 22 14.5 25.7 0.00 0.03 0.03 91 1010.8
20260506140034 15 32 16.1 29.0 0.00 0.03 0.03 91 1010.8
20260506135535 16 7 30.6 41.8 0.00 0.03 0.03 91 1010.9
20260506135036 16 20 14.5 22.5 0.00 0.03 0.03 91 1010.9
20260506134535 16 3 22.5 35.4 0.00 0.03 0.03 91 1010.8
20260506134036 16 341 20.9 29.0 0.00 0.03 0.03 91 1011.0
20260506133536 15 17 20.9 32.2 0.00 0.03 0.03 92 1011.1
20260506133035 15 33 16.1 25.7 0.00 0.03 0.03 92 1011.1
20260506132536 15 11 22.5 29.0 0.00 0.03 0.03 92 1011.1
20260506132035 15 359 9.7 16.1 0.00 0.03 0.03 92 1011.1
20260506131536 15 3 29.0 41.8 0.00 0.03 0.03 92 1011.1
20260506131035 15 4 9.7 16.1 0.00 0.03 0.03 92 1011.1
20260506130531 14 17 24.1 32.2 0.00 0.03 0.03 92 1011.1
20260506130035 14 359 8.0 16.1 0.00 0.03 0.03 92 1011.1
20260506125535 14 10 20.9 29.0 0.00 0.03 0.03 93 1011.0
20260506125035 13 355 4.8 16.1 0.00 0.03 0.03 93 1011.0
20260506124536 13 355 14.5 22.5 0.00 0.03 0.03 93 1011.1